Location: Buisson
(44.2787°N, 4.9969°E)
Time: 14:43:40
(UTC+00:00)

N. Korean satellite - Pass Details

Date: 04 October 2021
Orbit: 450 x 495 km, 97.3° (Epoch: 19 October)

Event Time Altitude Azimuth Distance (km) Brightness Sun altitude
Rises 04:00:37 0° 30° (NNE) 2,561 10.9 -18.8°
Reaches altitude 10° 04:03:18 10° 52° (NE) 1,682 10.3 -18.3°
Maximum altitude 04:05:39 16° 92° (E) 1,339 9.8 -17.9°
Drops below altitude 10° 04:07:59 10° 133° (SE) 1,684 9.8 -17.5°
Sets 04:10:41 0° 155° (SSE) 2,565 10.4 -17.0°
